Weather History for KMHS - July, 2012

Change the Weather History Date:

Thursday, July 26, 2012

  Actual Average Record
Temperature  
Mean Temperature 69 °F 69 °F  
Max Temperature 89 °F 88 °F 99 °F (1931)
Min Temperature 49 °F 50 °F 41 °F (1955)
Degree Days  
Heating Degree Days 0 1  
Month to date heating degree days 20 32  
Since 1 June heating degree days 199 174  
Since 1 July heating degree days 20 32  
Cooling Degree Days 4 5  
Month to date cooling degree days 108 102  
Year to date cooling degree days 149 147  
Since 1 June cooling degree days 140 139  
Growing Degree Days 19 (Base 50)    
Moisture  
Dew Point 44 °F    
Average Humidity 46    
Maximum Humidity 74    
Minimum Humidity 21    
Precipitation  
Precipitation 0.00 in 0.01 in 0.75 in (1986)
Month to date precipitation 0.06 0.34  
Year to date precipitation 24.55 26.94  
Sea Level Pressure  
Sea Level Pressure 29.98 in    
Wind  
Wind Speed 1 mph (ENE)    
Max Wind Speed 6 mph    
Max Gust Speed 13 mph    
Visibility 10 miles    
Events      
T = Trace of Precipitation, MM = Missing Value Source: NWS Daily Summary

Daily Weather History Graph

Daily Weather History Graph

Search for Another Location

Airport or City:

Trip Planner

Search our weather history database for the weather conditions in past years. The results will help you decide how hot, cold, wet, or windy it might be!

Date:

Astronomy

Jul. 26, 2012 Rise Set
Actual Time 5:59 AM PDT 8:31 PM PDT
Civil Twilight 5:27 AM PDT 9:03 PM PDT
Nautical Twilight 4:48 AM PDT 9:42 PM PDT
Astronomical Twilight 4:03 AM PDT 10:26 PM PDT
Moon 2:25 PM PDT (7/26) No Moon Set
Length of Visible Light 15h 35m
Length of Day
14h 32m
First Quarter, 55% of the Moon is Illuminated
Jul 26
First Quarter
Aug 1
Full
Aug 9
Last Quarter
Aug 17
New
Aug 24
First Quarter

Hourly Weather History & Observations

Time (PDT) Temp. Dew Point Humidity Pressure Visibility Wind Dir Wind Speed Gust Speed Precip Events Conditions
12:56 AM 55.0 °F 42.1 °F 62% 30.01 in 10.0 mi Calm Calm - N/A   Clear
1:56 AM 54.0 °F 42.1 °F 64% 30.01 in 10.0 mi Calm Calm - N/A   Clear
2:56 AM 51.1 °F 43.0 °F 74% 30.01 in 10.0 mi Calm Calm - N/A   Clear
3:56 AM 53.1 °F 43.0 °F 69% 30.01 in 10.0 mi Calm Calm - N/A   Clear
4:56 AM 51.1 °F 43.0 °F 74% 30.02 in 10.0 mi Calm Calm - N/A   Clear
5:56 AM 50.0 °F 42.1 °F 74% 30.02 in 10.0 mi Calm Calm - N/A   Clear
6:56 AM 53.1 °F 43.0 °F 69% 30.03 in 10.0 mi NE 3.5 mph - N/A   Clear
7:56 AM 62.1 °F 48.0 °F 60% 30.02 in 10.0 mi Calm Calm - N/A   Clear
8:56 AM 71.1 °F 51.1 °F 49% 30.00 in 10.0 mi Calm Calm - N/A   Clear
9:56 AM 75.0 °F 51.1 °F 43% 30.00 in 10.0 mi Calm Calm - N/A   Clear
10:56 AM 79.0 °F 48.0 °F 34% 29.99 in 10.0 mi Calm Calm - N/A   Clear
11:56 AM 82.9 °F 46.9 °F 28% 29.98 in 10.0 mi Calm Calm - N/A   Clear
12:56 PM 84.9 °F 46.0 °F 26% 29.97 in 10.0 mi Calm Calm - N/A   Clear
1:56 PM 87.1 °F 45.0 °F 23% 29.96 in 10.0 mi Variable 3.5 mph - N/A   Clear
2:56 PM 87.1 °F 44.1 °F 22% 29.95 in 10.0 mi Calm Calm - N/A   Clear
3:56 PM 88.0 °F 42.1 °F 20% 29.94 in 10.0 mi Calm Calm - N/A   Clear
4:56 PM 84.9 °F 44.1 °F 24% 29.94 in 10.0 mi Variable 3.5 mph - N/A   Clear
5:56 PM 79.0 °F 46.0 °F 31% 29.95 in 10.0 mi Calm Calm - N/A   Clear
6:56 PM 77.0 °F 44.1 °F 31% 29.96 in 10.0 mi Calm Calm - N/A   Clear
7:56 PM 75.0 °F 42.1 °F 31% 29.94 in 10.0 mi Calm Calm - N/A   Clear
8:56 PM 72.0 °F 39.0 °F 30% 29.95 in 10.0 mi East 3.5 mph - N/A   Clear
9:56 PM 64.0 °F 42.1 °F 45% 29.98 in 10.0 mi Calm Calm - N/A   Clear
10:56 PM 61.0 °F 43.0 °F 52% 29.98 in 10.0 mi Calm Calm - N/A   Clear
11:56 PM 57.9 °F 43.0 °F 58% 29.99 in 10.0 mi Calm Calm - N/A   Clear